Regional Weather Roundup
Issued by NWS Cleveland, OH

Home | Current Version | Previous Version | Text Only | Print | Product List | Glossary Off
Versions: 1 2 3 4 5 6 7 8 9 10 11 12 13 14 15 16 17 18 19 20 21 22 23 24 25 26 27 28 29 30 31 32 33 34 35 36 37 38 39 40 41 42 43 44 45 46 47 48 49 50

000
ASUS41 KCLE 251810
RWRCLE
OHIO REGIONAL WEATHER ROUNDUP
NATIONAL WEATHER SERVICE WILMINGTON, OH
200 PM EDT TUE JUL 25 2017

NOTE: "FAIR" INDICATES FEW OR NO CLOUDS BELOW 12,000 FEET WITH NO
SIGNIFICANT WEATHER AND/OR OBSTRUCTIONS TO VISIBILITY.

OHZ001>008-015>018-024>027-034-035-043-044-251900-
   NORTHWEST OHIO

CITY           SKY/WX    TMP DP  RH WIND       PRES   REMARKS
DEFIANCE       FAIR     N/A N/A N/A E7        30.22F
FINDLAY        FAIR      76  56  49 NE12      30.21F
TOLEDO EXPRESS FAIR      75  55  49 E9        30.22F
TOLEDO EXEC    FAIR      75  58  55 VRB6      30.24F
LIMA           FAIR      73  57  57 E10       30.22F
$$

OHZ009>014-019>023-028>033-038-089-251900-
   NORTHEAST OHIO

CITY           SKY/WX    TMP DP  RH WIND       PRES   REMARKS
CLE-HOPKINS    PTSUNNY   74  60  61 N10       30.24S
CLE-LAKEFRONT  FAIR      72  59  63 N10       30.21F
CUY CO. ARPT   PTSUNNY   73  61  64 NE12      30.22F
LORAIN-ELYRIA  PTSUNNY   72  56  57 N9        30.23S
ASHTABULA      PTSUNNY   71  58  63 N8        30.23R
AKRON-CANTON   PTSUNNY   72  57  59 N8        30.21F
WOOSTER        PTSUNNY   72  59  63 N7        30.23S
MANSFIELD      PTSUNNY   71  58  63 VRB7      30.24S
YOUNGSTOWN     PTSUNNY   73  57  57 VRB3      30.21F
$$

OHZ042-051>053-060>062-070>072-077>081-251900-
  SOUTHWEST OHIO

CITY           SKY/WX    TMP DP  RH WIND       PRES   REMARKS
CINC-COVINGTON FAIR      79  59  50 N6        30.19S
CINC-LUNKEN    FAIR      79  62  56 NE6       30.18F
HAMILTON       FAIR      79  63  57 VRB6      30.20S
DAYTON         FAIR      74  59  59 NE9       30.22F
WRIGHT-PAT AFB FAIR      74  59  60 N7        30.21F
DAYTON GENERAL FAIR      76  60  57 NE9       30.20S
WILMINGTON     FAIR      73  62  68 N9        30.21S
$$

OHZ036-037-039>041-045>050-054>059-063>069-073>076-082>088-251900-
  CENTRAL AND SOUTHEAST OHIO

CITY           SKY/WX    TMP DP  RH WIND       PRES   REMARKS
COLUMBUS       CLOUDY    72  59  63 CALM      30.21S
OSU AIRPORT    FAIR      71  57  61 CALM      30.22F
BOLTON FIELD   PTSUNNY   72  59  64 N7        30.22F
RICKENBACK AFB CLOUDY    72  58  62 N3        30.21F
NEWARK         CLOUDY    72  57  59 VRB3      30.21S
MARION         FAIR      74  58  57 NE9       30.22F
LANCASTER      CLOUDY    71  60  68 N6        30.22S
ZANESVILLE     CLOUDY    71  57  61 NW6       30.22S
NEW PHILLY     CLOUDY    72  60  66 N6        30.22S
$$




USA.gov is the U.S. government's official web portal to all federal, state and local government web resources and services.